Location: Albert Place
(40.7505°N, 111.9230°W)
Time: 14:34:59
(UTC+00:00)

CBERS-1 - Pass Details

Date: 13 December 2025
Orbit: 764 x 773 km, 98.8° (Epoch: 17 January)

Event Time Altitude Azimuth Distance (km) Brightness Sun altitude
Rises 13:29:17 0° 13° (NNE) 3,246 7.2 -13.6°
Reaches altitude 10° 13:31:36 10° 13° (NNE) 2,314 6.4 -13.2°
Maximum altitude 13:36:42 89° 287° (WNW) 772 4.0 -12.3°
Drops below altitude 10° 13:41:46 10° 196° (SSW) 2,294 6.5 -11.4°
Sets 13:44:03 0° 196° (SSW) 3,215 7.3 -11.0°
